Tracking 30995 objects as of 5-Jul-2025
HD Live streaming from Space Station
objects crossing your sky now

GSAT 30

Track GSAT 30 now!
GSAT 30 is classified as:


NORAD ID: 45026
Int'l Code: 2020-005A
Perigee: 35,777.6 km
Apogee: 35,811.4 km
Inclination: 0.0 °
Period: 1,436.1 minutes
Semi major axis: 42165 km
RCS: Unknown
Launch date: January 16, 2020
Source: India (IND)
Launch site: FRENCH GUIANA (FRGUI)
Your satellite tracking list
IRIDIUM 16
Track 1 satellite(s)




NASA's NSSDC Master Catalog

Two Line Element Set (TLE):
1 45026U 20005A   25186.58127410 -.00000148  00000-0  00000-0 0  9998
2 45026   0.0197  45.0649 0004008  45.8275 125.1781  1.00269121 20039
Source of the keplerian elements: AFSPC